Weather Roundup
Issued by NWS

Home | Current Version | Previous Version | Text Only | Print | Product List | Glossary On
Versions: 1 2 3 4 5 6 7 8 9 10 11 12 13 14 15 16 17 18 19 20 21 22 23 24 25 26 27 28 29 30 31 32 33 34 35 36 37 38 39 40 41 42 43 44 45 46 47 48 49 50
703
NZUS93 KARX 270210
HRRWXR

CURRENT HOURLY OBSERVATIONS ACROSS
MUCH OF THE UPPER MISSISSIPPI VALLEY
NATIONAL WEATHER SERVICE LA CROSSE WI
900 PM CDT WED APR 26 2017


...SOUTHEAST MINNESOTA...


CITY           SKY/WX    TMP DP  RH WIND       PRES   REMARKS
ROCHESTER      CLOUDY    37  36  96 NW9       29.55R WCI  30
ROCHESTER/MAYO CLOUDY    38  35  89 W9        29.56R WCI  32
WINONA         CLOUDY    41  37  87 NW8       29.55R FOG
AUSTIN         CLOUDY    37  34  87 NW14      29.56S WCI  29
ALBERT LEA     CLOUDY    36  32  87 NW10      29.57S WCI  28
DODGE CENTER   CLOUDY    37  36  93 NW13      29.56R WCI  29
PRESTON        CLOUDY    38  35  89 NW10      29.55R WCI  30
OWATONNA       CLOUDY    37  32  81 NW15      29.58R WCI  28
FARIBAULT      CLOUDY    37  34  87 NW9       29.59R WCI  31
$$

...ELSEWHERE IN MINNESOTA...


CITY           SKY/WX    TMP DP  RH WIND       PRES   REMARKS
MINNEAPOLIS    CLOUDY    38  31  76 N12       29.59R WCI  30
INTNL FALLS    CLOUDY    25  17  72 NE15G25   29.72R WCI  13
DULUTH         CLOUDY    28  24  85 N14       29.59S WCI  17
RED WING       DRIZZLE   39  34  81 NW7       29.56R WCI  34
REDWOOD FALLS  CLOUDY    33  28  81 NW10      29.65R WCI  25
MANKATO        CLOUDY    36  32  85 NW13      29.61R WCI  27
WORTHINGTON    CLOUDY    31  28  89 NW17      29.65R WCI  19
FAIRMONT       CLOUDY    34  32  93 NW16      29.62R WCI  23
$$

...SOUTHWEST WISCONSIN...


CITY           SKY/WX    TMP DP  RH WIND       PRES   REMARKS
LA CROSSE      CLOUDY    44  39  82 N12       29.53R
PRAIRIE DU CHI CLOUDY    44  39  82 W14       29.52S
BOSCOBEL       CLOUDY    47  41  80 W7        29.51S
LONE ROCK      CLOUDY    48  44  86 NW10      29.49S
PLATTEVILLE    CLOUDY    46  46  97 W9        29.49F
FORT MC COY    CLOUDY    41  40  98 W7        29.52F FOG
CAMP DOUGLAS   DRIZZLE   43  43 100 W7        29.50R FOG
MAUSTON-NEW LI CLOUDY    45  42  91 W9        29.48F
VIROQUA        CLOUDY    41  40  97 W7        29.51S
WIS DELLS      CLOUDY    47  45  94 NW6       29.47F FOG
$$

...ELSEWHERE IN WISCONSIN...


CITY           SKY/WX    TMP DP  RH WIND       PRES   REMARKS
MILWAUKEE      CLOUDY    62  56  80 SW6       29.44F
MADISON        CLOUDY    52  48  86 VRB7      29.46S
GREEN BAY      CLOUDY    58  55  90 W12       29.45R
EAU CLAIRE     CLOUDY    38  34  85 NW9       29.53S WCI  31
BLACK RVR FLS  CLOUDY    41  40  96 NW6       29.52R
MEDFORD        CLOUDY    37  35  94 N6        29.49F WCI  32
WAUSAU         CLOUDY    43  41  93 W9        29.48R
WIS RAPIDS     CLOUDY    44  42  93 NW7       29.50S
MARSHFIELD     CLOUDY    40  37  89 NW10      29.49R WCI  33
RICE LAKE      CLOUDY    36  32  87 N9        29.57R WCI  29
$$

...NORTHEAST IOWA...


CITY           SKY/WX    TMP DP  RH WIND       PRES   REMARKS
WATERLOO       CLOUDY    43  37  79 NW15      29.54F
DUBUQUE        CLOUDY    46  42  86 NW10      29.49S
DECORAH        MIX PCPN  39  39 100 NW10      29.52S WCI  32
MASON CITY     CLOUDY    38  33  82 NW15      29.58F WCI  29
CHARLES CITY   CLOUDY    41  37  87 NW14      29.57R
OELWEIN        CLOUDY    43  41  93 NW16      29.54S
$$

...ELSEWHERE IN IOWA...


CITY           SKY/WX    TMP DP  RH WIND       PRES   REMARKS
DES MOINES     CLOUDY    44  36  73 NW15      29.58F
IOWA CITY      CLOUDY    48  40  73 NW13      29.52F
FORT DODGE     CLOUDY    37  30  75 NW10      29.62F WCI  30
MARSHALLTOWN   CLOUDY    42  36  79 NW16      29.55F
CEDAR RAPIDS   CLOUDY    45  41  86 NW13      29.50F
$$

...NORTHERN ILLINOIS...


CITY           SKY/WX    TMP DP  RH WIND       PRES   REMARKS
CHICAGO-OHARE  CLOUDY    63  56  78 W5        29.45S
CHICAGO-MIDWAY LGT RAIN  67  57  70 W6        29.46S
MOLINE         CLOUDY    50  45  83 NW6       29.48F
ROCKFORD       CLOUDY    53  50  89 NW7       29.48F
PEORIA         LGT RAIN  52  51  97 NW6       29.47R
$$

NOTE: "FAIR" INDICATES FEW OR NO CLOUDS BELOW 12,000 FEET WITH NO
SIGNIFICANT WEATHER AND/OR OBSTRUCTIONS TO VISIBILITY. WIND
SPEEDS ARE IN MILES-PER-HOUR.




USA.gov is the U.S. government's official web portal to all federal, state and local government web resources and services.